Tiempo cada hora Barrancas

Hoy, 13 Mayo, Jueves

Tiempo Temperatura Precipitaciones Viento Presión Humedad
00:00 +24°C° 0 mm 2 mps 719 mmHg 74%
01:00 +24°C° 0 mm 2 mps 719 mmHg 76%
02:00 +23°C° 0 mm 2 mps 719 mmHg 78%
03:00 +23°C° 0 mm 2 mps 719 mmHg 80%
04:00 +23°C° 0 mm 2 mps 719 mmHg 82%
05:00 +24°C° 0 mm 2 mps 719 mmHg 79%
06:00 +24°C° 0 mm 2 mps 720 mmHg 76%
07:00 +25°C° 0 mm 2 mps 720 mmHg 73%
08:00 +28°C° 0 mm 2 mps 721 mmHg 64%
09:00 +30°C° 0 mm 2 mps 721 mmHg 55%
10:00 +32°C° 0 mm 2 mps 721 mmHg 47%
11:00 +34°C° 0 mm 2 mps 721 mmHg 42%
12:00 +35°C° 0 mm 2 mps 720 mmHg 38%
13:00 +36°C° 0 mm 2 mps 719 mmHg 34%
14:00 +36°C° 0 mm 2 mps 719 mmHg 37%
15:00 +35°C° 0 mm 3 mps 718 mmHg 39%
16:00 +34°C° 0 mm 3 mps 718 mmHg 42%
17:00 +31°C° 0 mm 3 mps 718 mmHg 51%
18:00 +29°C° 0 mm 3 mps 718 mmHg 61%
19:00 +27°C° 0 mm 2 mps 718 mmHg 70%
20:00 +26°C° 0 mm 2 mps 719 mmHg 71%
21:00 +26°C° 0 mm 2 mps 719 mmHg 72%
22:00 +25°C° 0 mm 2 mps 720 mmHg 74%
23:00 +25°C° 0 mm 2 mps 719 mmHg 74%

Mañana, 14 Mayo, Viernes

Tiempo Temperatura Precipitaciones Viento Presión Humedad
00:00 +24°C° 0 mm 2 mps 719 mmHg 75%
01:00 +24°C° 0 mm 2 mps 719 mmHg 75%
02:00 +24°C° 0 mm 2 mps 719 mmHg 76%
03:00 +23°C° 0 mm 1 mps 719 mmHg 77%
04:00 +23°C° 0 mm 1 mps 719 mmHg 77%
05:00 +24°C° 0 mm 1 mps 719 mmHg 75%
06:00 +25°C° 0 mm 1 mps 720 mmHg 72%
07:00 +26°C° 0 mm 1 mps 721 mmHg 69%
08:00 +28°C° 0 mm 1 mps 721 mmHg 62%
09:00 +30°C° 0 mm 1 mps 721 mmHg 55%
10:00 +32°C° 0 mm 1 mps 721 mmHg 48%
11:00 +33°C° 0 mm 1 mps 721 mmHg 44%
12:00 +34°C° 0 mm 1 mps 720 mmHg 40%
13:00 +35°C° 0 mm 1 mps 719 mmHg 36%
14:00 +35°C° 0 mm 2 mps 719 mmHg 41%
15:00 +34°C° 0 mm 3 mps 718 mmHg 45%
16:00 +33°C° 0 mm 4 mps 718 mmHg 50%
17:00 +30°C° 0 mm 4 mps 718 mmHg 58%
18:00 +28°C° 0 mm 3 mps 718 mmHg 66%
19:00 +26°C° 0 mm 2 mps 718 mmHg 75%
20:00 +26°C° 0 mm 2 mps 719 mmHg 76%
21:00 +26°C° 0 mm 2 mps 719 mmHg 77%
22:00 +25°C° 0 mm 2 mps 719 mmHg 79%
23:00 +25°C° 0 mm 1 mps 719 mmHg 79%

Pasado mañana, 15 Mayo, Sábado

Tiempo Temperatura Precipitaciones Viento Presión Humedad
00:00 +25°C° 0 mm 1 mps 719 mmHg 79%
01:00 +24°C° 0 mm 1 mps 718 mmHg 79%
02:00 +24°C° 0 mm 1 mps 719 mmHg 79%
03:00 +24°C° 0 mm 1 mps 719 mmHg 80%
04:00 +24°C° 0 mm 1 mps 719 mmHg 80%
05:00 +25°C° 0 mm 1 mps 719 mmHg 77%
06:00 +26°C° 0 mm 1 mps 720 mmHg 73%
07:00 +27°C° 0 mm 1 mps 720 mmHg 70%
08:00 +29°C° 0 mm 1 mps 721 mmHg 64%
09:00 +30°C° 0 mm 1 mps 721 mmHg 57%
10:00 +32°C° 0 mm 1 mps 721 mmHg 51%
11:00 +33°C° 0 mm 1 mps 720 mmHg 50%
12:00 +33°C° 0 mm 1 mps 719 mmHg 48%
13:00 +34°C° 0 mm 1 mps 719 mmHg 47%
14:00 +34°C° 0 mm 2 mps 718 mmHg 51%
15:00 +33°C° 0 mm 3 mps 718 mmHg 55%
16:00 +32°C° 0 mm 4 mps 718 mmHg 59%
17:00 +29°C° 0.1 mm 3 mps 718 mmHg 65%
18:00 +28°C° 0.1 mm 3 mps 718 mmHg 71%
19:00 +26°C° 0.1 mm 2 mps 718 mmHg 76%
20:00 +26°C° 0 mm 2 mps 719 mmHg 78%
21:00 +26°C° 0 mm 2 mps 719 mmHg 79%
22:00 +25°C° 0 mm 2 mps 720 mmHg 80%
23:00 +25°C° 0 mm 2 mps 719 mmHg 81%

16 Mayo, Domingo

Tiempo Temperatura Precipitaciones Viento Presión Humedad
00:00 +25°C° 0 mm 1 mps 719 mmHg 81%
01:00 +24°C° 0 mm 1 mps 719 mmHg 82%
02:00 +24°C° 0 mm 1 mps 719 mmHg 83%
03:00 +24°C° 0 mm 1 mps 719 mmHg 84%
04:00 +24°C° 0 mm 1 mps 719 mmHg 85%
05:00 +25°C° 0 mm 1 mps 719 mmHg 82%
06:00 +25°C° 0 mm 1 mps 720 mmHg 78%
07:00 +26°C° 0 mm 1 mps 721 mmHg 74%
08:00 +28°C° 0 mm 1 mps 721 mmHg 67%
09:00 +30°C° 0 mm 1 mps 721 mmHg 60%
10:00 +32°C° 0 mm 1 mps 721 mmHg 53%
11:00 +32°C° 0.1 mm 1 mps 721 mmHg 52%
12:00 +32°C° 0.1 mm 1 mps 720 mmHg 52%
13:00 +33°C° 0.1 mm 1 mps 719 mmHg 52%
14:00 +31°C° 0.1 mm 1 mps 719 mmHg 58%
15:00 +30°C° 0.1 mm 2 mps 719 mmHg 64%
16:00 +29°C° 0.1 mm 2 mps 718 mmHg 71%
17:00 +28°C° 0.1 mm 2 mps 719 mmHg 75%
18:00 +27°C° 0.1 mm 2 mps 719 mmHg 79%
19:00 +26°C° 0.1 mm 2 mps 719 mmHg 83%
20:00 +25°C° 0 mm 2 mps 720 mmHg 85%
21:00 +25°C° 0 mm 2 mps 720 mmHg 87%
22:00 +24°C° 0 mm 1 mps 720 mmHg 90%
23:00 +24°C° 0 mm 1 mps 720 mmHg 89%

17 Mayo, Lunes

Tiempo Temperatura Precipitaciones Viento Presión Humedad
00:00 +24°C° 0 mm 1 mps 719 mmHg 89%
01:00 +24°C° 0 mm 1 mps 719 mmHg 88%
02:00 +24°C° 0 mm 1 mps 719 mmHg 88%
03:00 +23°C° 0 mm 1 mps 719 mmHg 88%
04:00 +23°C° 0 mm 1 mps 719 mmHg 89%
05:00 +24°C° 0 mm 1 mps 720 mmHg 84%
06:00 +25°C° 0 mm 1 mps 720 mmHg 80%
07:00 +26°C° 0 mm 1 mps 721 mmHg 76%
08:00 +28°C° 0 mm 1 mps 721 mmHg 68%
09:00 +30°C° 0 mm 1 mps 721 mmHg 60%
10:00 +32°C° 0 mm 1 mps 721 mmHg 52%
11:00 +32°C° 0 mm 1 mps 721 mmHg 50%
12:00 +33°C° 0 mm 1 mps 720 mmHg 49%
13:00 +34°C° 0 mm 2 mps 720 mmHg 47%
14:00 +32°C° 0.1 mm 2 mps 719 mmHg 55%
15:00 +30°C° 0.1 mm 2 mps 719 mmHg 63%
16:00 +28°C° 0.1 mm 2 mps 719 mmHg 71%
17:00 +27°C° 0 mm 2 mps 719 mmHg 73%
18:00 +27°C° 0 mm 1 mps 719 mmHg 75%
19:00 +27°C° 0 mm 1 mps 719 mmHg 77%
20:00 +26°C° 0 mm 1 mps 720 mmHg 78%
21:00 +26°C° 0 mm 1 mps 720 mmHg 79%
22:00 +25°C° 0 mm 1 mps 720 mmHg 81%
23:00 +25°C° 0 mm 1 mps 720 mmHg 81%

18 Mayo, Martes

Tiempo Temperatura Precipitaciones Viento Presión Humedad
00:00 +25°C° 0 mm 1 mps 720 mmHg 81%
01:00 +24°C° 0 mm 1 mps 719 mmHg 82%
02:00 +24°C° 0.1 mm 1 mps 719 mmHg 82%
03:00 +24°C° 0.1 mm 1 mps 719 mmHg 83%
04:00 +24°C° 0.1 mm 1 mps 719 mmHg 84%
05:00 +24°C° 0.1 mm 1 mps 720 mmHg 83%
06:00 +25°C° 0.1 mm 1 mps 720 mmHg 81%
07:00 +26°C° 0.1 mm 1 mps 721 mmHg 79%
08:00 +28°C° 0 mm 1 mps 721 mmHg 70%
09:00 +30°C° 0 mm 1 mps 721 mmHg 62%
10:00 +32°C° 0 mm 1 mps 722 mmHg 53%
11:00 +32°C° 0.1 mm 1 mps 721 mmHg 52%
12:00 +34°C° 0.1 mm 2 mps 720 mmHg 50%
13:00 +34°C° 0.1 mm 2 mps 720 mmHg 49%
14:00 +31°C° 0.3 mm 2 mps 719 mmHg 57%
15:00 +30°C° 0.3 mm 2 mps 719 mmHg 65%
16:00 +28°C° 0.3 mm 2 mps 719 mmHg 73%
17:00 +28°C° 0.2 mm 2 mps 719 mmHg 76%
18:00 +27°C° 0.2 mm 2 mps 719 mmHg 79%
19:00 +26°C° 0.2 mm 1 mps 719 mmHg 83%
20:00 +26°C° 0 mm 1 mps 720 mmHg 83%
21:00 +25°C° 0 mm 2 mps 720 mmHg 83%
22:00 +25°C° 0 mm 2 mps 720 mmHg 84%
23:00 +25°C° 0 mm 2 mps 720 mmHg 84%
Mostrar más

Necesitamos Su Consentimiento

Meteoprog y nuestros Proveedores de Servicios pueden almacenar y acceder a sus datos personales como cookies, identificadores de dispositivo u otras tecnologías similares de su dispositivo y procesar dichos datos para personalizar contenido y anuncios, además de ofrecer funciones de redes sociales y analizar el tráfico.

  • Almacenar y/o acceder a información en su dispositivo

    Se puede almacenar o acceder a cookies, identificadores de dispositivo u otra información de su dispositivo para los fines anteriormente indicados.

  • Anuncios y contenido personalizados, medición de anuncios y contenido, percepciones del público, y desarrollo de productos

    Los anuncios y el contenido pueden personalizarse en base a su perfil. Se pueden añadir más datos para personalizar mejor los anuncios y contenidos. Se puede medir el rendimiento de los anuncios y contenidos. Se puede obtener la percepción sobre el público que ha visto los anuncios y contenidos. Dichos datos pueden usarse para desarrollar o mejorar la experiencia del usuario, sistemas y software.

Al hacer clic en ‘Estoy De Acuerdo’ usted permitirá el uso de las cookies, identificadores de dispositivo, balizas web u otras tecnologías similares indicadas. Su configuración puede cambiarse desde el navegador de su dispositivo.

Para ciertos fines, los intereses legítimos pueden ser considerados por encima del consentimiento. Puede leer más sobre ello en nuestra Política de Privacidad y Cookies.